Погода в Саскылахе

Погода в Саскылахе : погода сейчас, прогноз погоды и архив. Всё, что Вы хотите узнать о погоде в Саскылахе!

Хотите узнать прогноз погоды в Саскылахе? Тогда Вам сюда: Погода в Саскылахе

Поиск расширенной информации на нашем сайте:

Другие новости

Новости СМИ2

Главная страница сайта

Новости сайта

02.10.2013

Напоминаем, что на нашем новом сайте вы можете получить высокодетализированные прогнозы погоды по пунктам России, СНГ и мира (включающие важные для авиации метеовеличины, такие как направление и скорость ветра, видимость, явления погоды, количество и форма облачности, нижняя и верхняя граница облачности), а также ознакомиться с разнообразными материалами по авиационной метеорологии и подборкой полезных ссылок на эту тему.

Сайт Метеоцентр.Азия посвящён разработке технологий оптимизации авиаметеорологического обслуживания, включая проектирование и перспективное создание нескольких автоматизированных авиаметеорологических систем:
- система выпуска высокодетальных прогностических карт явлений погоды для нижнего воздушного пространства по России и ближнему зарубежью;
- система верификации прогнозов TAF (выпускаемых синоптиками официальных АМСГ РФ и ближнего зарубежья) и AUTOTAF (выпускаемых сайтом Метеоцентр.Азия) - выявление ошибок, онлайн-сопоставление с фактической погодой METAR, автоматическое внесение коррективов в прогнозы при резком отклонении фактической погоды от прогноза, подсчёт оправдываемости прогнозов по элементам и в целом;
- система обработки, анализа и отображения авиаметеорологической информации для применения провайдерами метеорологической информации.

Рекомендуем: разместить услугу

Погода в Саскылахе - сегодня

Время (UTC), дата Ветер
(°,м/с) 
Видим.   Явления Облачность Т
(°С)
Тd
(°С)
f(%) Тe
(°С)
Pmin
(гПа)
dP
(гПа)
Po
(мм)
O2
(г/м3)
Тmin Tmax R s Состояние
почвы
21 21.01.17 тихо ()   20000 м    10/0 средняя 
[As op]
-18.4 -20 87 -18  1008.2  0.5  754  327           
00 22.01.17 130 (ЮВ) 20000 м    10/0 средняя 
[Ac und]
-18.3 -20.2 85 -21  1008.2  754  327  -19.4      48  неравномерный
сухой снег
100% 
03 22.01.17 тихо ()   20000 м    10/0 средняя 
[Ac und]
-18.9 -20.6 86 -19  1008.2  754  328           
06 22.01.17 140 (ЮВ) 20000 м    10/0 средняя 
[Ac und]
-19.5 -22.3 78 -22  1008.2  754  329           
09 22.01.17 тихо ()   20000 м    10/0 средняя 
[Ac und]
-19.1 -20.7 87 -19  1007.7  -0.5  754  328           
12 22.01.17 110 (В) 20000 м    10/0 средняя 
[Ac und]
-18.9 -20.6 86 -22  1006.8  -0.9  753  328    -18.3       
15 22.01.17 120 (ЮВ) 20000 м    8/0 средняя 
[Ac As]
-17.8 -19.7 85 -20  1005.8  -1  752  326           
18 22.01.17 130 (ЮВ) 20000 м    10/0 средняя 
[Ac und]
-18 -20 84 -22  1005.1  -0.7  752  326           
21 22.01.17 120 (ЮВ) 20000 м    10/0 средняя 
[Ac und]
-18.6 -21 81 -19  1003.8  -1.3  751  326           
00 23.01.17 130 (ЮВ) 20000 м    10/0 средняя 
[Ac und]
-19 -21.4 81 -19  1002.8  -1  750  327  -19.1      48  неравномерный
сухой снег
100% 
03 23.01.17 140 (ЮВ) 20000 м    10/0 средняя 
[Ac und]
-19.3 -22 79 -20  1001.8  -1  749  327           
06 23.01.17 110 (В) 20000 м    10/10 840 м 
[Sc]
-20.4 -22.8 81 -23  1003.7  0.9  750  328           
09 23.01.17 110 (В) 20000 м    10/10 840 м 
[Sc]
-20.8 -23 82 -24  1002.7  750  329           
15 23.01.17 тихо ()   20000 м    10/0 средняя 
[Ac und]
-19.3 -21.8 80 -19  1002.7  750  327           
18 23.01.17 тихо ()   20000 м    10/0 средняя 
[Ac trans]
-19.7 -21.8 83 -20  1003.7  751  328           
21 23.01.17 100 (В) 20000 м    10/0 средняя 
[Ac und]
-19.7 -21.8 83 -22  1004.8  1.1  752  328           
00 24.01.17 110 (В) 20000 м    6/0 средняя 
[Ac trans]
-26.6 -29 80 -32  1004.9  752  337  -26.7      48  неравномерный
сухой снег
100% 
03 24.01.17 110 (В) 20000 м    6/0 средняя 
[Ac trans]
-27.2 -29.9 78 -31  1004.9  752  338           
06 24.01.17 080 (В) 20000 м    4/0 средняя 
[Ac trans]
-29.8 -32.6 77 -31  1003.3  -1.6  751  341           
09 24.01.17 120 (ЮВ) 20000 м    ясно 
-30.4 -33.3 76 -34  1003.3  751  342           
12 24.01.17 110 (В) 20000 м    ясно 
-32.4 -35.7 72 -36  1001.1  -2.2  749  344    -26.6       
15 24.01.17 130 (ЮВ) 20000 м    ясно 
-33.2 -36.4 73 -37  1000.8  -0.3  749  345           
18 24.01.17 тихо ()   20000 м    ясно 
-35.9 -39.6 69 -36  1001  0.2  749  349           
21 24.01.17 тихо ()   20000 м    ясно 
-36 -39.7 69 -36  1000.3  -0.7  748  349           
00 25.01.17 130 (ЮВ) 20000 м    ясно 
-34.8 -38.4 70 -36  1000.8  0.5  749  348  -36.1      48  неравномерный
сухой снег
100% 
Время (UTC), дата Ветер
(°,м/с) 
Видим.   Явления Облачность Т
(°С)
Тd
(°С)
f(%) Тe
(°С)
Pmin
(гПа)
dP
(гПа)
Po
(мм)
O2
(г/м3)
Тmin Tmax R s Состояние
почвы

Для получения пояснительной информации подведите курсор к названию столбца.

ПОГОДА в Саскылахе - архив

Всё, что Вы хотите узнать о погоде в Саскылахе - удобно и подробно!

Выберите нужную дату (начиная с 1 января 2015* года) и нажмите кнопку "Найти".
Будут отображены архивные сводки погоды по пункту Саскылах, начиная с указанной даты.


Отображать данные в формате CSV (для использования в таблицах Excel)


Внимание! Наш архив погоды предназначен исключительно для личного некоммерческого использования в познавательных целях. Если Вам необходимы официальные справки о состоянии погоды (для производственных, юридических, коммерческих и т.п. целей), обращайтесь в органы Росгидромета.

*Примечание: данная дата относится к архиву по метеостанциям СССР (Россия, СНГ, Балтия).
Архив по метеостанциям Зарубежной Европы и Азии (кроме Китая) хранится 10 дней, по другим регионам земного шара (Китай, Африка, Америка, Австралия, Океания) - 1 день.

Саскылах - район местоположения метеостанции


Название, широта, долгота, высота метеостанции:
Саскылах 72°ш. 114.1°д. 18 м над ур. моря [Российская Федерация]

Дополнительная информация

В oтличие oт бoльшинства пoгoдных сайтoв мы публикуем пoдрoбную метеoинфoрмацию в детальнoм прoфессиoнальнoм фoрмате.

Характеристики температуры и влажнoсти вoздуха измеряются на высoте 2 м в тени вдали oт зданий и деревьев.
Скoрoсть ветра измеряется на высoте 10 м (на урoвне рoста челoвека скoрoсть ветра ниже в 1.5-2 раза). Если метеoстанция нахoдится в гoрoде или в лесу, тo скoрoсть ветра занижена на 2-4 м/с пo сравнению с oткрытым местoм. Скoрoсть ветра над акватoриями крупных рек и oзёр, а также на вершинах хoлмoв на 2-5 м/с выше, чем в oбычных услoвиях.
Атмoсфернoе давление в разных тoчках местнoсти мoжет значительнo oтличаться oт давления на метеoстанции, в зависимoсти oт услoвий рельефа (при пoдъёме на 10 м давление пoнижается примернo на 1 мм рт.ст.).